• In Hungary
  • List of Countries
  • For 7 days
  • Water Temperature
  • Satellite Maps
  • Weather Map
  • News
  • Weather Widgets
  • user-avatar
    Login

    Hourly Weather Perovka

    Today, 23 July, Monday

    Time Temperature Precipitation Wind Pressure Humidity
    00:00 +17°C° 0 mm 7 mps 745 mmHg 54%
    01:00 +16°C° 0 mm 7 mps 745 mmHg 54%
    02:00 +15°C° 0 mm 6 mps 746 mmHg 56%
    03:00 +15°C° 0 mm 6 mps 746 mmHg 59%
    04:00 +15°C° 0 mm 7 mps 746 mmHg 59%
    05:00 +15°C° 0 mm 7 mps 746 mmHg 59%
    06:00 +15°C° 0 mm 7 mps 746 mmHg 59%
    07:00 +16°C° 0 mm 7 mps 747 mmHg 58%
    08:00 +17°C° 0 mm 7 mps 747 mmHg 54%
    09:00 +20°C° 0 mm 6 mps 747 mmHg 50%
    10:00 +21°C° 0 mm 6 mps 748 mmHg 44%
    11:00 +22°C° 0 mm 6 mps 748 mmHg 41%
    12:00 +23°C° 0 mm 6 mps 747 mmHg 38%
    13:00 +25°C° 0 mm 5 mps 747 mmHg 35%
    14:00 +26°C° 0 mm 5 mps 747 mmHg 34%
    15:00 +26°C° 0 mm 5 mps 747 mmHg 33%
    16:00 +26°C° 0 mm 5 mps 747 mmHg 33%
    17:00 +26°C° 0 mm 5 mps 747 mmHg 37%
    18:00 +25°C° 0 mm 5 mps 747 mmHg 41%
    19:00 +23°C° 0 mm 4 mps 747 mmHg 45%
    20:00 +22°C° 0 mm 4 mps 747 mmHg 49%
    21:00 +20°C° 0 mm 4 mps 747 mmHg 54%
    22:00 +18°C° 0 mm 4 mps 748 mmHg 59%
    23:00 +18°C° 0 mm 4 mps 748 mmHg 61%

    Tomorrow, 24 July, Tuesday

    Time Temperature Precipitation Wind Pressure Humidity
    00:00 +17°C° 0 mm 4 mps 748 mmHg 62%
    01:00 +17°C° 0 mm 4 mps 748 mmHg 64%
    02:00 +15°C° 0 mm 4 mps 748 mmHg 66%
    03:00 +15°C° 0 mm 4 mps 748 mmHg 68%
    04:00 +14°C° 0 mm 3 mps 748 mmHg 70%
    05:00 +17°C° 0 mm 3 mps 749 mmHg 67%
    06:00 +18°C° 0 mm 4 mps 749 mmHg 65%
    07:00 +19°C° 0 mm 4 mps 749 mmHg 62%
    08:00 +21°C° 0 mm 4 mps 749 mmHg 56%
    09:00 +23°C° 0 mm 4 mps 749 mmHg 50%
    10:00 +26°C° 0 mm 5 mps 749 mmHg 44%
    11:00 +27°C° 0 mm 4 mps 749 mmHg 41%
    12:00 +28°C° 0 mm 4 mps 749 mmHg 38%
    13:00 +29°C° 0 mm 3 mps 749 mmHg 36%
    14:00 +30°C° 0 mm 4 mps 749 mmHg 35%
    15:00 +30°C° 0 mm 4 mps 749 mmHg 34%
    16:00 +32°C° 0 mm 4 mps 748 mmHg 34%
    17:00 +30°C° 0 mm 4 mps 748 mmHg 38%
    18:00 +29°C° 0 mm 4 mps 748 mmHg 42%
    19:00 +28°C° 0 mm 3 mps 748 mmHg 46%
    20:00 +26°C° 0 mm 4 mps 748 mmHg 51%
    21:00 +25°C° 0 mm 4 mps 749 mmHg 55%
    22:00 +23°C° 0 mm 4 mps 749 mmHg 59%
    23:00 +22°C° 0 mm 4 mps 749 mmHg 61%

    Day after tomorrow, 25 July, Wednesday

    Time Temperature Precipitation Wind Pressure Humidity
    00:00 +21°C° 0 mm 4 mps 749 mmHg 63%
    01:00 +21°C° 0 mm 4 mps 749 mmHg 64%
    02:00 +21°C° 0 mm 4 mps 749 mmHg 64%
    03:00 +20°C° 0 mm 4 mps 749 mmHg 63%
    04:00 +20°C° 0 mm 4 mps 750 mmHg 63%
    05:00 +21°C° 0 mm 4 mps 750 mmHg 60%
    06:00 +22°C° 0 mm 4 mps 750 mmHg 58%
    07:00 +23°C° 0 mm 4 mps 750 mmHg 55%
    08:00 +26°C° 0 mm 5 mps 750 mmHg 49%
    09:00 +27°C° 0 mm 5 mps 750 mmHg 43%
    10:00 +29°C° 0 mm 5 mps 750 mmHg 37%
    11:00 +30°C° 0 mm 5 mps 750 mmHg 36%
    12:00 +30°C° 0 mm 5 mps 750 mmHg 35%
    13:00 +32°C° 0 mm 6 mps 750 mmHg 33%
    14:00 +32°C° 0 mm 6 mps 750 mmHg 34%
    15:00 +32°C° 0 mm 6 mps 750 mmHg 35%
    16:00 +32°C° 0 mm 6 mps 750 mmHg 35%
    17:00 +30°C° 0 mm 5 mps 750 mmHg 39%
    18:00 +29°C° 0 mm 4 mps 750 mmHg 42%
    19:00 +28°C° 0 mm 3 mps 750 mmHg 46%
    20:00 +27°C° 0 mm 3 mps 750 mmHg 49%
    21:00 +26°C° 0 mm 3 mps 750 mmHg 52%
    22:00 +24°C° 0 mm 3 mps 750 mmHg 55%
    23:00 +24°C° 0 mm 3 mps 750 mmHg 57%

    26 July, Thursday

    Time Temperature Precipitation Wind Pressure Humidity
    00:00 +22°C° 0 mm 3 mps 751 mmHg 59%
    01:00 +22°C° 0 mm 3 mps 751 mmHg 60%
    02:00 +21°C° 0 mm 3 mps 751 mmHg 61%
    03:00 +21°C° 0 mm 3 mps 751 mmHg 61%
    04:00 +20°C° 0 mm 3 mps 751 mmHg 61%
    05:00 +21°C° 0 mm 4 mps 751 mmHg 61%
    06:00 +22°C° 0 mm 4 mps 751 mmHg 60%
    07:00 +23°C° 0 mm 4 mps 752 mmHg 59%
    08:00 +25°C° 0 mm 5 mps 752 mmHg 53%
    09:00 +27°C° 0 mm 5 mps 752 mmHg 47%
    10:00 +29°C° 0 mm 5 mps 752 mmHg 41%
    11:00 +30°C° 0 mm 5 mps 752 mmHg 39%
    12:00 +30°C° 0 mm 5 mps 751 mmHg 37%
    13:00 +32°C° 0 mm 5 mps 751 mmHg 35%
    14:00 +32°C° 0 mm 5 mps 751 mmHg 34%
    15:00 +32°C° 0 mm 5 mps 751 mmHg 34%
    16:00 +32°C° 0 mm 5 mps 751 mmHg 33%
    17:00 +30°C° 0 mm 5 mps 751 mmHg 36%
    18:00 +29°C° 0 mm 4 mps 751 mmHg 40%
    19:00 +28°C° 0 mm 4 mps 750 mmHg 44%
    20:00 +27°C° 0 mm 4 mps 751 mmHg 48%
    21:00 +25°C° 0 mm 4 mps 751 mmHg 52%
    22:00 +23°C° 0 mm 4 mps 751 mmHg 57%
    23:00 +22°C° 0 mm 4 mps 751 mmHg 56%

    27 July, Friday

    Time Temperature Precipitation Wind Pressure Humidity
    00:00 +22°C° 0 mm 4 mps 751 mmHg 56%
    01:00 +21°C° 0 mm 4 mps 751 mmHg 55%
    02:00 +20°C° 0 mm 4 mps 751 mmHg 55%
    03:00 +20°C° 0 mm 4 mps 751 mmHg 55%
    04:00 +19°C° 0 mm 4 mps 751 mmHg 55%
    05:00 +20°C° 0 mm 4 mps 751 mmHg 54%
    06:00 +21°C° 0 mm 4 mps 751 mmHg 52%
    07:00 +22°C° 0 mm 5 mps 751 mmHg 51%
    08:00 +25°C° 0 mm 5 mps 751 mmHg 46%
    09:00 +27°C° 0 mm 5 mps 751 mmHg 40%
    10:00 +30°C° 0 mm 5 mps 751 mmHg 35%
    11:00 +30°C° 0 mm 5 mps 751 mmHg 33%
    12:00 +32°C° 0 mm 5 mps 751 mmHg 31%
    13:00 +33°C° 0 mm 5 mps 751 mmHg 29%
    14:00 +33°C° 0 mm 5 mps 750 mmHg 29%
    15:00 +34°C° 0 mm 5 mps 750 mmHg 29%
    16:00 +34°C° 0 mm 5 mps 750 mmHg 30%
    17:00 +33°C° 0 mm 5 mps 749 mmHg 34%
    18:00 +32°C° 0 mm 5 mps 749 mmHg 39%
    19:00 +30°C° 0 mm 5 mps 749 mmHg 43%
    20:00 +28°C° 0 mm 5 mps 749 mmHg 47%
    21:00 +27°C° 0 mm 5 mps 749 mmHg 50%
    22:00 +25°C° 0 mm 5 mps 749 mmHg 53%
    23:00 +25°C° 0 mm 4 mps 749 mmHg 54%

    28 July, Saturday

    Time Temperature Precipitation Wind Pressure Humidity
    00:00 +23°C° 0 mm 4 mps 749 mmHg 55%
    01:00 +22°C° 0 mm 3 mps 749 mmHg 56%
    02:00 +22°C° 0 mm 3 mps 749 mmHg 57%
    03:00 +21°C° 0 mm 3 mps 749 mmHg 58%
    04:00 +21°C° 0 mm 3 mps 749 mmHg 59%
    05:00 +22°C° 0 mm 3 mps 749 mmHg 57%
    06:00 +24°C° 0 mm 3 mps 749 mmHg 55%
    07:00 +24°C° 0 mm 3 mps 749 mmHg 54%
    08:00 +26°C° 0 mm 3 mps 749 mmHg 49%
    09:00 +28°C° 0 mm 3 mps 749 mmHg 43%
    10:00 +30°C° 0 mm 3 mps 749 mmHg 38%
    11:00 +31°C° 0 mm 3 mps 749 mmHg 35%
    12:00 +31°C° 0 mm 3 mps 748 mmHg 32%
    13:00 +33°C° 0 mm 3 mps 748 mmHg 29%
    14:00 +33°C° 0 mm 3 mps 748 mmHg 29%
    15:00 +33°C° 0 mm 3 mps 748 mmHg 29%
    16:00 +33°C° 0 mm 3 mps 747 mmHg 30%
    17:00 +31°C° 0 mm 3 mps 747 mmHg 33%
    18:00 +30°C° 0 mm 3 mps 747 mmHg 36%
    19:00 +30°C° 0 mm 3 mps 747 mmHg 40%
    20:00 +28°C° 0 mm 3 mps 747 mmHg 42%
    21:00 +27°C° 0 mm 3 mps 747 mmHg 45%
    22:00 +25°C° 0 mm 3 mps 747 mmHg 48%
    23:00 +25°C° 0 mm 3 mps 747 mmHg 49%
    Show more